Location: Chuathbaluk
(61.5726°N, 159.2454°W)
Time: 16:24:45
(UTC+00:00)

NOAA 15 - Pass Details

Date: 25 January 2021
Orbit: 798 x 812 km, 98.7° (Epoch: 05 March)

Event Time Altitude Azimuth Distance (km) Brightness Sun altitude
Rises 05:40:53 0° 183° (S) 3,306 7.8 -22.7°
Reaches altitude 10° 05:43:19 10° 190° (S) 2,382 7.1 -23.0°
Maximum altitude 05:48:20 43° 262° (W) 1,120 5.8 -23.5°
Drops below altitude 10° 05:53:24 10° 334° (NNW) 2,406 7.4 -24.2°
Sets 05:55:52 0° 341° (NNW) 3,343 8.1 -24.4°
